Home > Time Zones > World Clock > Weather > Iran > Rasht > Past weeks

Flag for Iran Weather past 2 weeks in Rasht, Iran

Now
66 °F

Sunny.


Feels Like: 66 °F
Forecast: 49 / 68 °F
Wind: 9 mph from East

Location: Rasht Airport

Current Time: Apr 26, 2015 at 8:41:07 PM

Latest Report: Apr 26, 2015 at 8:00 PM


Visibility: 10 mi

Pressure: 30.09 "Hg

Humidity: 40%

Dew point: 41 °F

Location of RashtLocation

Historic Weather in Rasht — Graph

°F

Rasht temperature yesterday

Maximum temperature yesterday: 61 °F (at 11:30 AM)
Minimum temperature yesterday: 46 °F (at 6:30 AM)
Average temperature yesterday: 56 °F

Past Weeks' High & Low Weather Summary

 TemperatureHumidityPressure
High86 °F (Apr 20, 11:30 AM)100% (Apr 11, 7:30 PM)30.24 "Hg (Apr 11, 7:30 PM)
Low45 °F (Apr 15, 7:30 AM)18% (Apr 20, 12:30 PM)29.62 "Hg (Apr 21, 5:30 PM)
Average57 °F82%30.00 "Hg
* Reported Apr 11 7:30 PM — Apr 26 7:30 PM, Rasht, Weather by CustomWeather, © 2015

Note: Actual official high and low records may vary slightly from our data, if they occured in-between our weather recording intervals... More about our weather records

Advertising

Rasht weather history for previous 24 hours

 ConditionsComfort  
Time TempWeatherWind HumidityBarometerVisibility
7:30 PM
Sun, Apr 26
66 °FSunny.9 mph40%30.09 "Hg10 mi
7:00 PM70 °FSunny.12 mph40%30.09 "Hg10 mi
6:30 PM70 °FSunny.12 mph40%30.09 "Hg10 mi
6:00 PM72 °FSunny.12 mph31%30.09 "Hg10 mi
5:30 PM72 °FSunny.12 mph31%30.09 "Hg10 mi
5:00 PM73 °FSunny.18 mph36%30.12 "Hg10 mi
4:30 PM73 °FSunny.18 mph36%30.12 "Hg10 mi
4:00 PM75 °FSunny.14 mph31%30.12 "Hg10 mi
3:30 PM75 °FSunny.14 mph31%30.12 "Hg10 mi
3:00 PM75 °FSunny.14 mph34%30.15 "Hg10 mi
2:30 PM75 °FSunny.9 mph34%30.15 "Hg10 mi
2:00 PM73 °FSunny.5 mph25%30.15 "Hg10 mi
1:30 PM73 °FSunny.5 mph25%30.15 "Hg10 mi
1:00 PM72 °FSunny.5 mph31%30.18 "Hg10 mi
12:30 PM72 °FSunny.5 mph31%30.18 "Hg10 mi
12:00 PM70 °FSunny.9 mph43%30.21 "Hg10 mi
11:30 AM70 °FSunny.9 mph43%30.21 "Hg10 mi
11:00 AM66 °FSunny.5 mph56%30.21 "Hg10 mi
10:30 AM66 °FSunny.5 mph56%30.21 "Hg10 mi
10:00 AM63 °FSunny.No wind56%30.21 "Hg10 mi
9:30 AM63 °FSunny.No wind56%30.21 "Hg10 mi
9:00 AM57 °FSunny.5 mph63%30.21 "Hg10 mi
8:30 AM55 °FSunny.No wind67%30.21 "Hg10 mi
8:00 AM52 °FSunny.5 mph72%30.21 "Hg10 mi
7:30 AM48 °FClear.5 mph76%30.21 "Hg10 mi
7:00 AM46 °FClear.2 mph87%30.18 "Hg10 mi
6:30 AM46 °FClear.5 mph87%30.18 "Hg10 mi
6:00 AM46 °FClear.5 mph87%30.18 "Hg10 mi
12:30 AM50 °FClear.No wind94%30.24 "Hg10 mi
10:30 PM
Sat, Apr 25
52 °FClear.5 mph88%30.24 "Hg10 mi
8:00 PM55 °FPassing clouds.2 mph72%30.21 "HgN/A
Weather by CustomWeather, © 2015

See weather overviewHow to use our weather pages